Total_Precipitation_Accumulation
0.02 0.03 0.11 0.14 0.08 0.13 0.20 0.19 0.07 0.17 0.06 0.20 0.04 0.07 0.17 0.17 0.16 0.31 0.07 0.21 0.05 0.10 0.02 0.06 0.01 0.03 0.02 0.01 0.00 0.00 0.00 0.00 0.00 0.00 0.00 0.02 0.04 0.10 0.02 0.01 0.06 0.08 0.08 0.12 0.17 0.16 0.12 0.14 0.10 0.08 0.09 0.04 0.04 0.04 0.06 0.04 0.04 0.04 0.01 0.03 0.05 0.04 0.02 0.00 0.00 0.01 0.01 0.01 0.02 0.02 0.01 0.01 0.00 0.00 0.00 0.00 0.00 0.00 0.00 0.01 0.02 0.01 0.02 0.02 0.01
0.08 0.12 0.03 0.13 0.08 0.04 0.07 0.04 0.12 0.17 0.12 0.09 0.06 0.10 0.14 0.15 0.06 0.18 0.13 0.07 0.05 0.28 0.04 0.02 0.03 0.01 0.01 0.00 0.00 0.01 0.00 0.00 0.00 0.00 0.01 0.01 0.00 0.04 0.01 0.03 0.03 0.08 0.11 0.13 0.08 0.16 0.12 0.12 0.23 0.21 0.09 0.14 0.11 0.09 0.05 0.06 0.06 0.09 0.02 0.01 0.01 0.02 0.04 0.01 0.00 0.00 0.02 0.02 0.02 0.03 0.03 0.02 0.00 0.00 0.00 0.00 0.00 0.00 0.01 0.02 0.02 0.01 0.01 0.02 0.01
0.13 0.05 0.04 0.03 0.06 0.04 0.08 0.14 0.08 0.22 0.12 0.09 0.10 0.13 0.10 0.04 0.04 0.13 0.12 0.04 0.21 0.05 0.02 0.02 0.01 0.02 0.01 0.00 0.01 0.01 0.00 0.00 0.01 0.00 0.01 0.00 0.01 0.04 0.08 0.07 0.05 0.10 0.11 0.10 0.07 0.08 0.20 0.19 0.22 0.25 0.16 0.10 0.16 0.11 0.11 0.09 0.11 0.13 0.08 0.02 0.02 0.02 0.01 0.02 0.02 0.01 0.01 0.00 0.02 0.02 0.02 0.02 0.03 0.01 0.00 0.00 0.00 0.00 0.01 0.01 0.01 0.01 0.01 0.03 0.02
0.08 0.12 0.12 0.05 0.13 0.06 0.06 0.06 0.11 0.04 0.08 0.10 0.15 0.13 0.12 0.20 0.06 0.03 0.11 0.14 0.17 0.04 0.01 0.06 0.01 0.02 0.02 0.00 0.00 0.00 0.00 0.00 0.00 0.00 0.00 0.00 0.00 0.00 0.03 0.12 0.13 0.09 0.13 0.10 0.13 0.14 0.16 0.16 0.24 0.36 0.34 0.35 0.40 0.18 0.09 0.10 0.13 0.12 0.09 0.12 0.11 0.08 0.01 0.02 0.02 0.02 0.01 0.00 0.00 0.01 0.02 0.04 0.02 0.02 0.02 0.01 0.01 0.01 0.01 0.01 0.01 0.03 0.03 0.04 0.06
0.02 0.05 0.03 0.07 0.05 0.05 0.05 0.03 0.04 0.08 0.03 0.07 0.06 0.05 0.12 0.16 0.31 0.06 0.11 0.10 0.05 0.00 0.00 0.02 0.01 0.01 0.01 0.01 0.00 0.00 0.00 0.00 0.00 0.00 0.00 0.01 0.00 0.02 0.02 0.07 0.13 0.17 0.10 0.08 0.25 0.20 0.19 0.16 0.21 0.25 0.11 0.16 0.08 0.16 0.24 0.26 0.13 0.12 0.15 0.20 0.11 0.10 0.12 0.07 0.10 0.05 0.04 0.03 0.01 0.01 0.02 0.01 0.02 0.02 0.03 0.04 0.02 0.02 0.02 0.04 0.05 0.03 0.05 0.05 0.03
0.02 0.05 0.03 0.05 0.05 0.12 0.06 0.04 0.05 0.03 0.03 0.06 0.09 0.07 0.10 0.07 0.06 0.05 0.07 0.02 0.02 0.01 0.01 0.02 0.00 0.00 0.01 0.00 0.00 0.00 0.00 0.00 0.00 0.00 0.01 0.00 0.03 0.01 0.01 0.04 0.06 0.13 0.10 0.04 0.07 0.07 0.14 0.16 0.18 0.24 0.19 0.18 0.15 0.17 0.11 0.23 0.23 0.15 0.09 0.10 0.18 0.21 0.32 0.14 0.23 0.24 0.08 0.10 0.05 0.05 0.04 0.02 0.02 0.02 0.01 0.02 0.02 0.05 0.04 0.06 0.07 0.07 0.06 0.07 0.06
0.02 0.02 0.05 0.06 0.06 0.02 0.06 0.05 0.04 0.07 0.07 0.05 0.04 0.09 0.05 0.05 0.02 0.03 0.01 0.02 0.01 0.01 0.01 0.01 0.01 0.01 0.00 0.00 0.00 0.00 0.00 0.00 0.00 0.00 0.00 0.01 0.00 0.01 0.02 0.02 0.05 0.02 0.12 0.15 0.04 0.11 0.09 0.12 0.17 0.14 0.20 0.17 0.20 0.20 0.14 0.21 0.28 0.24 0.27 0.18 0.22 0.44 0.19 0.34 0.37 0.54 0.38 0.24 0.28 0.19 0.06 0.06 0.14 0.08 0.03 0.04 0.03 0.02 0.04 0.06 0.05 0.06 0.04 0.05 0.08
0.02 0.02 0.05 0.03 0.04 0.21 0.08 0.06 0.08 0.04 0.05 0.09 0.05 0.07 0.15 0.08 0.03 0.03 0.02 0.02 0.02 0.02 0.01 0.01 0.01 0.01 0.01 0.01 0.00 0.00 0.00 0.00 0.00 0.00 0.00 0.02 0.02 0.02 0.01 0.00 0.04 0.03 0.06 0.08 0.11 0.10 0.05 0.13 0.15 0.27 0.12 0.14 0.16 0.33 0.52 0.43 1.03 0.69 0.47 0.52 0.42 0.53 0.76 0.45 0.58 0.35 0.43 0.34 0.51 0.28 0.13 0.27 0.30 0.15 0.15 0.07 0.07 0.05 0.03 0.05 0.06 0.06 0.08 0.04 0.03
0.02 0.02 0.02 0.02 0.06 0.04 0.12 0.12 0.10 0.09 0.07 0.07 0.09 0.06 0.08 0.10 0.05 0.06 0.02 0.02 0.02 0.02 0.02 0.00 0.01 0.01 0.00 0.00 0.00 0.00 0.00 0.00 0.00 0.00 0.00 0.01 0.03 0.10 0.03 0.05 0.02 0.02 0.05 0.04 0.07 0.17 0.02 0.08 0.08 0.08 0.07 0.16 0.14 0.26 0.57 1.12 1.00 0.43 0.56 0.78 0.68 0.63 0.37 0.51 0.58 0.55 0.46 0.46 0.70 0.41 0.28 0.49 0.32 0.30 0.48 0.37 0.32 0.12 0.07 0.06 0.05 0.05 0.05 0.05 0.06
0.02 0.01 0.01 0.01 0.04 0.02 0.05 0.22 0.14 0.11 0.09 0.07 0.19 0.10 0.05 0.06 0.13 0.04 0.03 0.02 0.02 0.03 0.02 0.01 0.01 0.01 0.00 0.00 0.00 0.00 0.00 0.00 0.00 0.01 0.01 0.01 0.03 0.02 0.05 0.04 0.05 0.02 0.08 0.06 0.06 0.03 0.11 0.04 0.04 0.05 0.03 0.06 0.09 0.21 0.39 0.66 0.43 0.47 0.50 0.49 0.53 0.75 0.63 0.63 0.66 0.45 0.34 0.57 0.48 0.44 0.51 0.46 0.42 0.54 0.53 0.58 0.56 0.23 0.20 0.16 0.10 0.11 0.12 0.10 0.07
0.01 0.01 0.01 0.01 0.02 0.04 0.05 0.10 0.05 0.17 0.11 0.08 0.09 0.10 0.07 0.05 0.03 0.07 0.02 0.03 0.03 0.01 0.00 0.00 0.00 0.00 0.00 0.00 0.00 0.00 0.00 0.00 0.00 0.01 0.01 0.02 0.01 0.01 0.02 0.03 0.01 0.01 0.01 0.02 0.04 0.05 0.09 0.12 0.19 0.16 0.12 0.05 0.09 0.15 0.30 0.37 0.34 0.33 0.36 0.42 0.46 0.56 0.57 0.53 0.35 0.45 0.33 0.36 0.51 0.49 0.31 0.54 0.38 0.31 0.37 0.53 0.30 0.24 0.17 0.22 0.23 0.25 0.15 0.13 0.12
0.01 0.02 0.02 0.02 0.03 0.04 0.11 0.15 0.10 0.09 0.18 0.08 0.17 0.14 0.09 0.06 0.03 0.05 0.08 0.04 0.02 0.01 0.00 0.00 0.00 0.00 0.00 0.00 0.00 0.00 0.00 0.00 0.00 0.01 0.01 0.02 0.01 0.02 0.02 0.01 0.00 0.00 0.00 0.00 0.01 0.05 0.04 0.06 0.09 0.14 0.11 0.13 0.08 0.10 0.17 0.18 0.16 0.15 0.32 0.49 0.29 0.35 0.54 0.50 0.32 0.23 0.33 0.50 0.53 0.43 0.37 0.42 0.39 0.26 0.33 0.34 0.30 0.38 0.28 0.33 0.25 0.15 0.16 0.18 0.27
0.01 0.01 0.01 0.03 0.05 0.05 0.11 0.11 0.11 0.17 0.13 0.10 0.09 0.12 0.07 0.05 0.04 0.04 0.05 0.03 0.02 0.00 0.00 0.00 0.00 0.00 0.00 0.00 0.00 0.00 0.00 0.00 0.00 0.00 0.00 0.02 0.00 0.01 0.00 0.00 0.00 0.00 0.00 0.00 0.00 0.02 0.04 0.04 0.04 0.08 0.11 0.14 0.12 0.05 0.12 0.09 0.13 0.14 0.15 0.17 0.17 0.16 0.33 0.59 0.52 0.37 0.50 0.44 0.43 0.34 0.22 0.22 0.50 0.47 0.32 0.31 0.29 0.31 0.41 0.45 0.34 0.22 0.29 0.22 0.21
0.00 0.02 0.02 0.02 0.08 0.08 0.12 0.19 0.10 0.14 0.10 0.08 0.04 0.14 0.03 0.03 0.04 0.06 0.03 0.02 0.02 0.01 0.00 0.00 0.00 0.01 0.01 0.01 0.00 0.00 0.00 0.00 0.00 0.00 0.00 0.03 0.01 0.01 0.01 0.00 0.00 0.00 0.00 0.00 0.00 0.00 0.00 0.00 0.01 0.04 0.08 0.13 0.15 0.16 0.11 0.11 0.12 0.04 0.03 0.07 0.11 0.16 0.23 0.35 0.24 0.32 0.38 0.47 0.37 0.26 0.26 0.22 0.42 0.38 0.32 0.30 0.27 0.30 0.30 0.21 0.16 0.22 0.19 0.19 0.27
0.01 0.02 0.01 0.04 0.07 0.13 0.13 0.15 0.05 0.09 0.10 0.06 0.06 0.08 0.06 0.03 0.02 0.02 0.02 0.01 0.01 0.00 0.00 0.00 0.00 0.00 0.00 0.00 0.01 0.02 0.03 0.00 0.00 0.00 0.00 0.00 0.00 0.01 0.00 0.01 0.00 0.00 0.00 0.00 0.00 0.00 0.00 0.00 0.00 0.00 0.00 0.01 0.03 0.11 0.10 0.18 0.06 0.03 0.00 0.02 0.01 0.10 0.13 0.12 0.20 0.23 0.34 0.26 0.17 0.11 0.22 0.16 0.27 0.33 0.34 0.26 0.13 0.16 0.14 0.14 0.15 0.27 0.30 0.40 0.18
0.06 0.06 0.13 0.10 0.06 0.07 0.05 0.08 0.05 0.06 0.06 0.09 0.05 0.03 0.06 0.10 0.02 0.01 0.01 0.02 0.01 0.01 0.00 0.00 0.00 0.00 0.01 0.04 0.03 0.02 0.04 0.04 0.02 0.01 0.01 0.01 0.00 0.01 0.00 0.00 0.00 0.00 0.00 0.00 0.00 0.00 0.00 0.00 0.00 0.00 0.00 0.00 0.00 0.01 0.09 0.06 0.05 0.01 0.00 0.00 0.00 0.00 0.01 0.03 0.04 0.11 0.07 0.07 0.04 0.02 0.01 0.02 0.07 0.15 0.22 0.21 0.11 0.10 0.09 0.16 0.15 0.20 0.33 0.31 0.39
0.01 0.05 0.05 0.04 0.04 0.04 0.03 0.03 0.03 0.03 0.04 0.05 0.08 0.06 0.08 0.07 0.02 0.01 0.01 0.01 0.04 0.01 0.01 0.00 0.00 0.00 0.01 0.00 0.02 0.04 0.09 0.02 0.01 0.01 0.01 0.01 0.00 0.01 0.00 0.00 0.01 0.00 0.00 0.00 0.00 0.00 0.00 0.01 0.00 0.00 0.00 0.00 0.00 0.00 0.01 0.01 0.02 0.02 0.00 0.00 0.00 0.00 0.00 0.00 0.00 0.01 0.00 0.00 0.00 0.00 0.01 0.00 0.01 0.01 0.05 0.12 0.09 0.06 0.05 0.07 0.06 0.07 0.14 0.25 0.29
0.01 0.01 0.00 0.02 0.03 0.02 0.01 0.02 0.09 0.04 0.04 0.02 0.04 0.04 0.03 0.04 0.03 0.01 0.01 0.01 0.01 0.01 0.01 0.00 0.00 0.00 0.00 0.01 0.00 0.11 0.02 0.03 0.02 0.14 0.01 0.01 0.00 0.00 0.00 0.01 0.01 0.00 0.00 0.00 0.00 0.00 0.00 0.01 0.00 0.00 0.00 0.00 0.00 0.00 0.00 0.00 0.00 0.00 0.00 0.00 0.00 0.00 0.00 0.00 0.00 0.00 0.00 0.00 0.00 0.00 0.00 0.00 0.01 0.01 0.01 0.00 0.02 0.03 0.03 0.01 0.03 0.04 0.02 0.05 0.06
0.06 0.01 0.00 0.02 0.04 0.03 0.03 0.02 0.01 0.05 0.03 0.01 0.03 0.06 0.06 0.02 0.00 0.01 0.00 0.01 0.01 0.01 0.00 0.00 0.00 0.00 0.00 0.00 0.00 0.01 0.00 0.01 0.07 0.03 0.07 0.02 0.02 0.01 0.01 0.00 0.01 0.00 0.00 0.00 0.00 0.00 0.00 0.00 0.00 0.01 0.00 0.00 0.00 0.00 0.01 0.00 0.00 0.00 0.00 0.00 0.00 0.00 0.00 0.00 0.00 0.00 0.00 0.00 0.00 0.00 0.00 0.00 0.00 0.00 0.00 0.00 0.00 0.00 0.00 0.00 0.00 0.01 0.01 0.01 0.02
0.00 0.01 0.07 0.01 0.01 0.03 0.05 0.02 0.01 0.01 0.02 0.03 0.01 0.02 0.01 0.01 0.01 0.01 0.01 0.01 0.01 0.01 0.01 0.01 0.00 0.02 0.01 0.01 0.01 0.00 0.00 0.00 0.01 0.01 0.03 0.05 0.05 0.01 0.01 0.01 0.01 0.00 0.00 0.01 0.00 0.01 0.00 0.00 0.00 0.00 0.01 0.00 0.00 0.01 0.01 0.00 0.00 0.00 0.00 0.00 0.00 0.00 0.00 0.00 0.00 0.00 0.00 0.00 0.00 0.00 0.00 0.00 0.00 0.00 0.00 0.00 0.00 0.00 0.00 0.00 0.00 0.00 0.00 0.00 0.00
0.00 0.01 0.00 0.00 0.00 0.02 0.03 0.01 0.01 0.01 0.00 0.02 0.03 0.01 0.01 0.01 0.02 0.01 0.01 0.01 0.01 0.01 0.01 0.01 0.00 0.02 0.01 0.02 0.00 0.00 0.00 0.00 0.00 0.00 0.01 0.03 0.04 0.02 0.02 0.00 0.00 0.01 0.02 0.00 0.00 0.01 0.00 0.00 0.00 0.00 0.01 0.00 0.00 0.00 0.01 0.01 0.00 0.00 0.00 0.00 0.00 0.00 0.00 0.00 0.00 0.00 0.00 0.00 0.00 0.00 0.00 0.00 0.00 0.00 0.00 0.00 0.00 0.00 0.00 0.00 0.01 0.00 0.00 0.00 0.00
0.00 0.00 0.00 0.00 0.00 0.00 0.02 0.06 0.01 0.01 0.00 0.01 0.02 0.02 0.01 0.01 0.01 0.01 0.01 0.01 0.01 0.01 0.00 0.01 0.00 0.00 0.00 0.02 0.01 0.00 0.00 0.00 0.00 0.00 0.01 0.00 0.02 0.02 0.01 0.02 0.02 0.02 0.00 0.01 0.01 0.01 0.00 0.01 0.00 0.00 0.00 0.01 0.01 0.00 0.00 0.01 0.00 0.01 0.01 0.00 0.00 0.00 0.00 0.00 0.00 0.00 0.00 0.00 0.00 0.00 0.00 0.00 0.00 0.00 0.00 0.00 0.00 0.00 0.00 0.00 0.00 0.00 0.00 0.00 0.00
0.00 0.00 0.00 0.00 0.00 0.00 0.00 0.01 0.04 0.01 0.00 0.00 0.00 0.03 0.05 0.07 0.00 0.00 0.01 0.01 0.01 0.01 0.00 0.00 0.00 0.00 0.00 0.00 0.00 0.00 0.00 0.00 0.00 0.01 0.00 0.00 0.00 0.00 0.00 0.01 0.02 0.01 0.02 0.00 0.00 0.01 0.01 0.02 0.01 0.00 0.01 0.01 0.00 0.00 0.00 0.01 0.01 0.00 0.00 0.00 0.00 0.00 0.00 0.00 0.00 0.00 0.00 0.00 0.00 0.00 0.00 0.00 0.00 0.00 0.00 0.00 0.00 0.00 0.00 0.00 0.00 0.00 0.00 0.00 0.00
0.00 0.00 0.00 0.02 0.00 0.00 0.00 0.00 0.00 0.00 0.01 0.00 0.02 0.01 0.02 0.01 0.00 0.01 0.01 0.01 0.01 0.01 0.00 0.01 0.00 0.00 0.00 0.00 0.00 0.00 0.00 0.00 0.00 0.00 0.00 0.00 0.00 0.01 0.02 0.01 0.00 0.00 0.01 0.01 0.00 0.00 0.01 0.02 0.02 0.01 0.02 0.03 0.01 0.01 0.01 0.00 0.00 0.00 0.00 0.00 0.00 0.00 0.00 0.00 0.00 0.00 0.00 0.00 0.00 0.00 0.00 0.00 0.00 0.00 0.00 0.00 0.00 0.00 0.00 0.00 0.00 0.00 0.00 0.00 0.00
0.00 0.00 0.00 0.00 0.00 0.00 0.00 0.00 0.00 0.00 0.01 0.01 0.00 0.01 0.02 0.01 0.00 0.01 0.00 0.01 0.01 0.01 0.01 0.01 0.01 0.00 0.00 0.00 0.00 0.00 0.00 0.00 0.00 0.00 0.00 0.00 0.00 0.00 0.01 0.01 0.00 0.00 0.00 0.00 0.01 0.01 0.01 0.02 0.02 0.02 0.02 0.01 0.01 0.00 0.00 0.01 0.01 0.00 0.00 0.00 0.00 0.00 0.00 0.00 0.00 0.00 0.00 0.00 0.00 0.00 0.00 0.00 0.00 0.00 0.00 0.00 0.00 0.00 0.00 0.00 0.00 0.00 0.00 0.00 0.00
0.00 0.00 0.00 0.00 0.00 0.00 0.00 0.00 0.00 0.00 0.00 0.00 0.00 0.01 0.01 0.01 0.01 0.00 0.00 0.00 0.00 0.01 0.01 0.01 0.00 0.00 0.00 0.00 0.00 0.00 0.00 0.00 0.00 0.01 0.01 0.00 0.01 0.00 0.01 0.00 0.00 0.00 0.00 0.01 0.02 0.01 0.03 0.02 0.02 0.01 0.01 0.01 0.01 0.00 0.00 0.03 0.01 0.00 0.00 0.00 0.00 0.00 0.00 0.00 0.00 0.00 0.00 0.00 0.00 0.00 0.00 0.00 0.00 0.00 0.00 0.00 0.00 0.00 0.00 0.00 0.00 0.00 0.00 0.00 0.00
0.00 0.02 0.00 0.00 0.00 0.00 0.00 0.00 0.00 0.00 0.00 0.00 0.01 0.02 0.02 0.01 0.01 0.00 0.00 0.01 0.00 0.00 0.01 0.01 0.01 0.01 0.00 0.00 0.00 0.00 0.00 0.00 0.00 0.00 0.00 0.00 0.00 0.00 0.00 0.00 0.00 0.00 0.02 0.01 0.00 0.00 0.00 0.01 0.01 0.01 0.01 0.00 0.00 0.00 0.00 0.01 0.01 0.00 0.00 0.00 0.00 0.00 0.00 0.00 0.00 0.00 0.00 0.00 0.00 0.00 0.00 0.00 0.00 0.00 0.00 0.00 0.00 0.00 0.00 0.00 0.00 0.00 0.00 0.00 0.00
0.00 0.01 0.00 0.00 0.00 0.00 0.00 0.00 0.00 0.00 0.00 0.00 0.00 0.01 0.01 0.01 0.01 0.01 0.00 0.00 0.00 0.01 0.01 0.01 0.00 0.00 0.00 0.00 0.00 0.00 0.00 0.00 0.00 0.00 0.00 0.00 0.00 0.00 0.01 0.01 0.03 0.02 0.00 0.00 0.00 0.01 0.00 0.00 0.00 0.00 0.00 0.00 0.00 0.00 0.01 0.00 0.02 0.01 0.00 0.00 0.01 0.01 0.01 0.00 0.00 0.00 0.00 0.00 0.00 0.00 0.00 0.00 0.00 0.00 0.00 0.00 0.00 0.00 0.00 0.00 0.00 0.00 0.00 0.00 0.00
0.00 0.00 0.00 0.00 0.00 0.00 0.00 0.00 0.00 0.00 0.00 0.00 0.01 0.00 0.01 0.01 0.01 0.00 0.00 0.01 0.00 0.00 0.01 0.01 0.00 0.00 0.00 0.00 0.00 0.01 0.00 0.00 0.00 0.00 0.00 0.00 0.00 0.00 0.01 0.01 0.02 0.00 0.00 0.01 0.01 0.00 0.00 0.00 0.00 0.08 0.00 0.00 0.00 0.00 0.00 0.00 0.02 0.00 0.00 0.01 0.01 0.06 0.01 0.00 0.00 0.00 0.00 0.00 0.00 0.00 0.00 0.00 0.00 0.00 0.00 0.00 0.00 0.00 0.00 0.00 0.00 0.00 0.00 0.00 0.00
0.00 0.01 0.00 0.00 0.00 0.00 0.00 0.00 0.00 0.00 0.00 0.01 0.01 0.00 0.01 0.01 0.01 0.01 0.01 0.01 0.00 0.00 0.00 0.00 0.01 0.00 0.00 0.00 0.00 0.00 0.00 0.00 0.00 0.00 0.00 0.00 0.00 0.02 0.00 0.00 0.00 0.02 0.01 0.00 0.02 0.01 0.01 0.00 0.00 0.02 0.02 0.02 0.01 0.01 0.01 0.01 0.01 0.00 0.00 0.00 0.00 0.02 0.00 0.00 0.00 0.00 0.00 0.00 0.00 0.00 0.00 0.00 0.00 0.00 0.00 0.00 0.00 0.00 0.00 0.00 0.00 0.00 0.00 0.00 0.00
0.00 0.00 0.00 0.00 0.00 0.00 0.00 0.00 0.00 0.00 0.00 0.00 0.00 0.01 0.01 0.01 0.00 0.00 0.00 0.00 0.00 0.00 0.00 0.00 0.00 0.00 0.00 0.00 0.00 0.00 0.00 0.00 0.00 0.00 0.00 0.00 0.00 0.00 0.01 0.00 0.00 0.00 0.01 0.01 0.01 0.02 0.00 0.00 0.00 0.00 0.00 0.00 0.00 0.01 0.00 0.00 0.00 0.00 0.00 0.00 0.00 0.00 0.00 0.00 0.00 0.00 0.00 0.00 0.00 0.00 0.00 0.00 0.00 0.00 0.00 0.00 0.00 0.00 0.00 0.00 0.00 0.00 0.00 0.00 0.00
0.00 0.00 0.00 0.00 0.00 0.00 0.00 0.00 0.00 0.00 0.00 0.00 0.01 0.00 0.01 0.00 0.00 0.00 0.00 0.00 0.00 0.00 0.00 0.00 0.00 0.00 0.00 0.00 0.00 0.00 0.00 0.00 0.00 0.00 0.00 0.00 0.01 0.01 0.00 0.00 0.00 0.00 0.00 0.01 0.01 0.00 0.01 0.00 0.00 0.00 0.00 0.00 0.00 0.00 0.00 0.01 0.01 0.00 0.00 0.00 0.00 0.00 0.00 0.00 0.00 0.00 0.00 0.00 0.00 0.00 0.00 0.00 0.00 0.00 0.00 0.00 0.00 0.00 0.00 0.00 0.00 0.00 0.00 0.00 0.00
0.00 0.00 0.00 0.00 0.00 0.00 0.00 0.00 0.00 0.00 0.00 0.00 0.00 0.00 0.00 0.00 0.00 0.00 0.00 0.00 0.00 0.00 0.00 0.00 0.00 0.00 0.00 0.00 0.00 0.00 0.00 0.00 0.00 0.01 0.01 0.00 0.00 0.00 0.00 0.00 0.00 0.01 0.00 0.01 0.02 0.01 0.01 0.00 0.00 0.00 0.00 0.00 0.00 0.00 0.00 0.00 0.01 0.01 0.00 0.01 0.01 0.01 0.01 0.02 0.01 0.00 0.00 0.00 0.00 0.00 0.00 0.00 0.00 0.00 0.00 0.00 0.00 0.00 0.00 0.00 0.00 0.00 0.00 0.00 0.00
0.00 0.00 0.00 0.00 0.01 0.00 0.00 0.00 0.01 0.00 0.00 0.00 0.00 0.00 0.00 0.00 0.00 0.00 0.00 0.00 0.00 0.00 0.00 0.00 0.00 0.00 0.00 0.00 0.00 0.00 0.00 0.00 0.03 0.01 0.00 0.00 0.00 0.00 0.00 0.00 0.01 0.01 0.00 0.01 0.01 0.02 0.01 0.01 0.01 0.00 0.00 0.00 0.00 0.00 0.00 0.00 0.02 0.02 0.01 0.01 0.00 0.00 0.00 0.00 0.02 0.04 0.00 0.00 0.00 0.00 0.00 0.00 0.00 0.00 0.00 0.00 0.00 0.00 0.00 0.00 0.00 0.00 0.00 0.00 0.00
0.02 0.02 0.02 0.02 0.01 0.00 0.01 0.01 0.00 0.00 0.00 0.00 0.00 0.00 0.00 0.00 0.00 0.00 0.00 0.00 0.00 0.00 0.00 0.00 0.00 0.00 0.00 0.00 0.00 0.00 0.00 0.00 0.00 0.00 0.00 0.00 0.00 0.00 0.00 0.00 0.00 0.00 0.01 0.00 0.01 0.03 0.02 0.00 0.00 0.00 0.00 0.01 0.00 0.01 0.00 0.00 0.00 0.01 0.01 0.02 0.04 0.02 0.01 0.00 0.00 0.01 0.01 0.00 0.00 0.00 0.00 0.00 0.00 0.00 0.00 0.00 0.00 0.00 0.00 0.00 0.00 0.00 0.00 0.00 0.00
0.01 0.02 0.02 0.02 0.02 0.03 0.03 0.02 0.02 0.02 0.02 0.01 0.00 0.00 0.00 0.00 0.00 0.00 0.00 0.00 0.00 0.00 0.00 0.00 0.00 0.00 0.00 0.00 0.00 0.00 0.00 0.00 0.00 0.00 0.00 0.00 0.00 0.01 0.00 0.00 0.01 0.01 0.01 0.01 0.03 0.03 0.04 0.01 0.00 0.00 0.00 0.00 0.01 0.00 0.00 0.00 0.01 0.01 0.02 0.01 0.00 0.00 0.00 0.00 0.00 0.01 0.02 0.01 0.00 0.00 0.00 0.00 0.00 0.00 0.00 0.00 0.00 0.00 0.00 0.00 0.00 0.00 0.00 0.00 0.00
0.00 0.03 0.05 0.06 0.05 0.02 0.01 0.02 0.04 0.05 0.03 0.01 0.00 0.00 0.00 0.00 0.00 0.00 0.00 0.00 0.00 0.00 0.00 0.00 0.00 0.00 0.00 0.00 0.00 0.00 0.00 0.00 0.00 0.00 0.00 0.00 0.02 0.03 0.01 0.02 0.01 0.00 0.02 0.05 0.05 0.03 0.02 0.04 0.01 0.01 0.00 0.00 0.00 0.00 0.00 0.01 0.02 0.00 0.00 0.00 0.00 0.00 0.00 0.01 0.02 0.02 0.01 0.00 0.00 0.00 0.00 0.00 0.00 0.00 0.00 0.00 0.00 0.00 0.00 0.00 0.00 0.00 0.00 0.00 0.00
0.05 0.07 0.07 0.04 0.01 0.00 0.01 0.02 0.03 0.03 0.01 0.00 0.00 0.00 0.00 0.00 0.00 0.00 0.00 0.00 0.00 0.00 0.00 0.00 0.00 0.00 0.00 0.00 0.00 0.00 0.00 0.00 0.00 0.00 0.00 0.01 0.00 0.00 0.00 0.05 0.04 0.08 0.07 0.04 0.02 0.01 0.04 0.03 0.04 0.06 0.03 0.03 0.03 0.01 0.01 0.01 0.01 0.02 0.02 0.01 0.00 0.01 0.01 0.01 0.01 0.01 0.03 0.03 0.01 0.01 0.01 0.00 0.00 0.00 0.00 0.00 0.00 0.00 0.00 0.00 0.00 0.00 0.00 0.00 0.00
0.01 0.02 0.01 0.00 0.00 0.00 0.01 0.00 0.00 0.00 0.00 0.00 0.00 0.00 0.00 0.01 0.00 0.00 0.00 0.00 0.00 0.00 0.00 0.01 0.01 0.00 0.01 0.00 0.00 0.01 0.00 0.01 0.00 0.00 0.01 0.01 0.01 0.01 0.01 0.07 0.04 0.03 0.01 0.02 0.01 0.01 0.06 0.04 0.01 0.01 0.05 0.01 0.01 0.06 0.01 0.00 0.01 0.00 0.02 0.02 0.02 0.02 0.01 0.01 0.02 0.01 0.01 0.01 0.01 0.01 0.00 0.00 0.00 0.00 0.00 0.00 0.00 0.00 0.00 0.00 0.00 0.00 0.00 0.00 0.00
0.00 0.00 0.00 0.00 0.00 0.00 0.00 0.00 0.00 0.00 0.00 0.00 0.00 0.00 0.00 0.00 0.00 0.00 0.00 0.00 0.00 0.00 0.00 0.00 0.00 0.00 0.00 0.00 0.00 0.00 0.00 0.01 0.01 0.01 0.00 0.07 0.05 0.04 0.01 0.01 0.01 0.00 0.01 0.00 0.00 0.01 0.01 0.01 0.02 0.03 0.01 0.01 0.01 0.02 0.01 0.02 0.00 0.02 0.01 0.01 0.02 0.01 0.03 0.08 0.04 0.03 0.02 0.02 0.01 0.02 0.02 0.00 0.00 0.00 0.00 0.00 0.00 0.00 0.00 0.00 0.00 0.00 0.00 0.00 0.00
0.00 0.00 0.00 0.00 0.00 0.00 0.00 0.00 0.00 0.00 0.00 0.00 0.00 0.00 0.00 0.00 0.00 0.00 0.00 0.00 0.00 0.00 0.00 0.00 0.00 0.01 0.02 0.01 0.01 0.00 0.01 0.00 0.00 0.00 0.00 0.00 0.00 0.01 0.01 0.01 0.01 0.00 0.00 0.00 0.00 0.00 0.01 0.02 0.01 0.01 0.01 0.02 0.02 0.03 0.02 0.01 0.05 0.06 0.05 0.01 0.01 0.01 0.01 0.03 0.07 0.02 0.03 0.03 0.01 0.00 0.00 0.00 0.00 0.00 0.00 0.00 0.00 0.00 0.00 0.00 0.00 0.00 0.00 0.01 0.00
0.00 0.00 0.00 0.00 0.00 0.00 0.00 0.00 0.00 0.00 0.00 0.00 0.00 0.00 0.00 0.00 0.00 0.02 0.00 0.00 0.00 0.00 0.01 0.01 0.03 0.04 0.02 0.02 0.01 0.00 0.00 0.00 0.00 0.03 0.01 0.01 0.00 0.00 0.01 0.00 0.01 0.01 0.00 0.00 0.00 0.01 0.01 0.01 0.01 0.01 0.03 0.04 0.03 0.02 0.03 0.03 0.02 0.03 0.05 0.02 0.04 0.08 0.02 0.02 0.03 0.04 0.01 0.02 0.01 0.00 0.00 0.00 0.00 0.00 0.00 0.00 0.00 0.00 0.00 0.00 0.00 0.01 0.04 0.01 0.07
0.00 0.00 0.00 0.00 0.01 0.01 0.00 0.00 0.00 0.00 0.00 0.00 0.00 0.00 0.00 0.00 0.04 0.02 0.03 0.02 0.01 0.00 0.03 0.07 0.13 0.02 0.02 0.00 0.01 0.01 0.00 0.00 0.01 0.02 0.01 0.00 0.00 0.00 0.00 0.00 0.00 0.01 0.00 0.00 0.00 0.01 0.02 0.01 0.03 0.02 0.03 0.02 0.02 0.02 0.03 0.03 0.04 0.07 0.04 0.02 0.03 0.05 0.05 0.05 0.03 0.01 0.02 0.01 0.01 0.01 0.01 0.00 0.00 0.01 0.00 0.00 0.00 0.00 0.00 0.00 0.00 0.01 0.25 0.10 0.05
0.00 0.00 0.01 0.03 0.02 0.00 0.01 0.00 0.02 0.01 0.00 0.00 0.00 0.00 0.00 0.02 0.02 0.08 0.07 0.01 0.09 0.05 0.13 0.10 0.03 0.01 0.01 0.03 0.02 0.01 0.04 0.03 0.01 0.02 0.02 0.00 0.00 0.00 0.00 0.00 0.00 0.00 0.00 0.01 0.02 0.02 0.02 0.04 0.04 0.04 0.02 0.01 0.03 0.02 0.06 0.05 0.05 0.03 0.02 0.05 0.03 0.05 0.07 0.04 0.02 0.03 0.02 0.00 0.01 0.01 0.00 0.01 0.00 0.00 0.01 0.00 0.00 0.00 0.00 0.00 0.00 0.04 0.04 0.54 0.13
0.00 0.00 0.00 0.00 0.00 0.00 0.00 0.00 0.00 0.02 0.01 0.00 0.00 0.00 0.01 0.04 0.10 0.16 0.37 0.54 0.28 0.22 0.03 0.06 0.18 0.02 0.03 0.03 0.03 0.03 0.03 0.01 0.03 0.03 0.04 0.02 0.01 0.01 0.02 0.02 0.03 0.04 0.03 0.03 0.03 0.07 0.07 0.06 0.05 0.02 0.02 0.02 0.03 0.03 0.03 0.02 0.02 0.05 0.06 0.07 0.05 0.05 0.03 0.02 0.01 0.01 0.01 0.01 0.02 0.01 0.01 0.00 0.00 0.00 0.00 0.00 0.02 0.00 0.00 0.00 0.00 0.05 0.02 0.57 1.01
0.00 0.00 0.00 0.00 0.00 0.00 0.00 0.00 0.00 0.00 0.00 0.00 0.00 0.02 0.06 0.25 0.26 0.18 2.18 1.18 0.34 0.05 0.05 0.06 0.02 0.03 0.05 0.04 0.04 0.03 0.06 0.08 0.11 0.08 0.09 0.05 0.03 0.05 0.08 0.11 0.07 0.02 0.02 0.02 0.04 0.07 0.06 0.03 0.04 0.06 0.03 0.02 0.03 0.03 0.03 0.05 0.06 0.06 0.04 0.05 0.05 0.03 0.02 0.02 0.01 0.01 0.02 0.01 0.02 0.02 0.02 0.00 0.01 0.00 0.00 0.01 0.01 0.00 0.00 0.00 0.01 0.03 0.29 1.15 1.07
0.00 0.00 0.01 0.03 0.00 0.00 0.00 0.03 0.00 0.00 0.00 0.00 0.00 0.00 0.02 0.33 0.08 0.22 1.62 2.35 0.54 0.19 0.18 0.05 0.02 0.01 0.01 0.02 0.05 0.18 0.21 0.38 0.18 0.09 0.12 0.09 0.07 0.03 0.04 0.01 0.02 0.04 0.06 0.04 0.06 0.05 0.03 0.02 0.04 0.06 0.02 0.02 0.02 0.02 0.04 0.01 0.02 0.02 0.03 0.02 0.01 0.01 0.01 0.01 0.01 0.00 0.00 0.00 0.00 0.02 0.03 0.00 0.00 0.00 0.00 0.00 0.00 0.09 0.00 0.00 0.00 0.02 0.22 0.88 0.80
0.12 0.31 0.00 0.00 0.00 0.02 0.00 0.00 0.01 0.01 0.00 0.00 0.00 0.00 0.09 0.09 0.14 0.37 0.59 1.68 0.45 0.21 0.41 0.61 0.46 0.13 0.06 0.11 0.16 0.21 0.15 0.10 0.12 0.04 0.06 0.05 0.05 0.03 0.12 0.06 0.05 0.04 0.02 0.01 0.00 0.01 0.02 0.05 0.02 0.02 0.02 0.02 0.00 0.01 0.04 0.03 0.03 0.01 0.01 0.01 0.01 0.02 0.05 0.02 0.02 0.00 0.00 0.00 0.00 0.04 0.05 0.13 0.04 0.01 0.00 0.00 0.09 0.02 0.00 0.00 0.00 0.02 0.10 0.40 0.91
0.04 0.03 0.00 0.00 0.00 0.00 0.00 0.00 0.00 0.01 0.00 0.00 0.00 0.00 0.00 0.00 0.02 0.21 1.33 0.21 0.41 0.68 0.45 0.46 0.30 0.34 0.29 0.18 0.12 0.10 0.09 0.04 0.04 0.04 0.04 0.05 0.07 0.06 0.03 0.02 0.01 0.05 0.02 0.06 0.01 0.01 0.00 0.00 0.00 0.00 0.00 0.00 0.00 0.00 0.00 0.00 0.01 0.04 0.08 0.06 0.05 0.11 0.09 0.13 0.05 0.02 0.11 0.06 0.01 0.01 0.14 0.21 0.01 0.02 0.01 0.00 0.06 0.00 0.00 0.01 0.11 0.05 0.09 0.92 0.42
0.01 0.00 0.01 0.02 0.01 0.00 0.01 0.01 0.01 0.00 0.00 0.00 0.00 0.00 0.00 0.00 0.38 0.97 0.09 0.08 0.13 0.45 1.36 0.86 0.56 0.40 0.18 0.16 0.07 0.03 0.02 0.02 0.12 0.02 0.04 0.04 0.02 0.00 0.00 0.01 0.03 0.02 0.02 0.01 0.02 0.01 0.00 0.00 0.00 0.00 0.00 0.00 0.00 0.00 0.00 0.00 0.00 0.02 0.02 0.10 0.04 0.40 0.18 0.12 0.09 0.31 0.82 0.27 0.01 0.04 0.31 0.16 0.03 0.04 0.01 0.01 0.06 0.00 0.04 0.07 0.02 0.10 0.37 0.20 0.24
0.00 0.00 0.01 0.01 0.01 0.01 0.02 0.03 0.01 0.01 0.04 0.03 0.00 0.00 0.00 0.01 0.47 0.85 0.90 0.12 0.08 0.09 0.19 0.16 0.06 0.07 0.04 0.02 0.02 0.01 0.01 0.01 0.01 0.00 0.00 0.02 0.01 0.00 0.02 0.02 0.03 0.01 0.01 0.03 0.05 0.06 0.06 0.01 0.04 0.02 0.00 0.00 0.00 0.01 0.01 0.00 0.00 0.00 0.05 0.03 0.04 0.08 0.14 0.05 0.29 0.86 0.85 0.11 0.02 0.14 0.62 0.43 0.59 0.03 0.13 0.22 0.29 0.05 0.10 0.01 0.09 0.22 0.20 0.55 1.24